FENGYUN 1C DEB, 30732

Orbit data source: Space-Track

FENGYUN 1C DEB, 30732 is space debris in SSO originally from a launch on Mon, 10 May 1999 UTC launched from the Taiyaun Space Center, China (TSC). Fengyun 1C debris stems from the Chinese weather satellite Fengyun-1C, which was intentionally destroyed by a Chinese anti-satellite missile in 2007. This event dramatically increased the amount of space debris, with thousands of trackable fragments posing hazards to satellites and human spaceflight. The Fengyun 1C debris cloud has become a focal point in discussions about space sustainability and the need for international regulations to prevent the creation of new debris.

Loading next visibility...
Identifier
30732, 1999-025ASS
Orbit
SSO
Country
Flag of CNCN / PRC
Related business
Manufacturer
Unknown
Mission
Spacecraft
Bus & Motor
Unknown
Mass
Unknown
Launch date (UTC)
1999-05-10 (27 years ago)
Launch vehicle
Unknown
Launch site
Taiyaun Space Center, China (TSC)
Object type
Payload
Rocket body
Debris
Shape & HBR
Unknown shape, 0.1 m
Radar Cross Section
Medium (>0.1 m² and <1 m²)

Expand to show TLE details & history
Last TLE update: 11 hours ago

TLE from 11 hours ago
0 FENGYUN 1C DEB
1 30732U 99025ASS 26255.27941238  .00000653  00000-0  40933-3 0  9992
2 30732  98.7892 271.7374 0124185 163.0829 259.2560 14.04176382   297
Epoch: 2026-09-12T06:42Z
TLE epoch observation values (Epoch: 2026-09-12T06:42:21.229Z)
Latitude
59.85192°
Longitude
164.50226°
Altitude
907.383 km
Speed
7.395 km/s
True Right ascension
17h 05m 31s
True Declination
59° 42' 19"
Sunlit
Object was in daylight at epoch
Visualization orbit readout
Latitude
Unknown
Longitude
Unknown
Altitude
Unknown
Speed
Unknown
Apparent Right ascension
Unknown
Apparent Declination
Unknown
Sunlit
N/A
Visualization observer readout
Local Sidereal Time
10:17:26
Azimuth
Unknown
Elevation
Unknown
Doppler factor
Unknown
Orbital elements
Apogee altitude
966.644 km
Perigee altitude
786.46 km
Semi-major axis
7,254.689 km
Eccentricity
0.01242
Inclination
98.7892°
RAAN
271.7374°
Arg. of periapsis
163.0829°
True anomaly
257.86206°
Mean anomaly
259.256°
Eccentric anomaly
258.55861°
Mean motion
3.51249 °/min
Orbital period
102.49 mins
BSTAR
0.00040933
Loading maneuver chart data...
Computing Atmospheric mass density...

Documentation

Showing up to 5 results
|